Lid_Strength_Index
1 2 2 3 3 3 3 3 3 3 3 3 3 3 3 3 3 3 3 3 3 2 2 2 2 1 1 3 3 1 -3 -1 0 1 3 3 4 5 6 5 5 6 5 5 5 5 5
2 2 3 3 3 3 3 3 3 3 4 4 4 4 4 4 3 3 3 3 3 3 2 2 1 1 1 5 1 0 1 1 1 2 3 3 4 4 5 5 6 5 5 5 5 4 4
2 2 3 3 3 3 3 3 3 4 4 4 4 4 4 4 4 3 3 3 3 3 3 2 1 1 3 3 1 0 0 1 1 2 3 3 3 4 4 5 4 4 6 5 5 5 5
2 2 2 3 3 3 3 3 4 4 4 4 4 4 4 4 4 4 3 3 3 3 2 2 1 1 4 0 -0 1 1 1 1 1 2 2 2 3 4 3 4 6 6 8 5 5 5
2 2 3 3 3 4 4 4 4 4 4 4 4 4 4 4 4 4 4 4 3 2 1 1 1 1 4 1 2 1 0 2 2 2 2 2 2 3 4 6 7 6 9 8 7 5 5
2 2 3 3 3 4 4 4 4 4 4 4 5 5 5 5 4 4 4 4 2 2 1 0 1 3 2 3 2 1 0 1 3 3 3 4 4 5 5 6 10 9 8 8 8 6 6
2 2 3 4 4 4 4 4 5 5 5 5 5 5 5 5 5 5 4 0 2 3 2 3 3 4 4 2 1 2 1 2 3 4 6 4 6 8 6 6 6 7 8 8 7 5 6
3 3 3 4 4 4 4 5 5 5 5 5 5 5 5 5 5 5 3 2 3 2 5 3 3 3 2 2 4 3 2 4 5 6 5 6 8 6 6 6 6 7 8 8 6 5 6
3 3 4 4 4 4 5 5 5 5 5 6 6 6 5 5 5 3 2 2 0 1 5 4 3 3 3 3 4 4 3 4 5 6 6 7 6 5 6 7 8 7 8 8 8 6 6
3 3 4 4 4 5 5 5 5 6 6 6 6 6 6 6 4 1 2 0 0 0 7 6 5 4 3 3 5 2 2 3 5 6 6 6 5 6 7 7 7 9 6 7 7 8 10
3 4 4 4 5 5 5 5 6 6 6 6 6 6 6 7 2 2 1 0 -0 1 14 6 5 2 3 4 4 4 2 3 6 6 6 7 7 7 7 7 6 7 6 7 7 8 9
3 4 4 4 5 5 5 6 6 6 6 6 7 6 6 3 1 1 0 -0 1 9 13 7 5 5 5 5 5 4 4 3 3 5 5 6 4 5 6 5 5 5 6 7 7 8 12
4 4 4 4 5 5 5 6 6 6 6 6 6 6 6 3 3 0 -0 2 9 11 6 8 7 6 6 6 6 5 6 6 7 9 9 7 6 5 5 7 5 6 8 12 13 13 13
4 4 4 5 5 5 6 6 6 6 6 7 7 7 4 2 1 -1 1 6 11 8 8 6 6 6 7 6 6 6 6 7 6 6 8 10 11 7 5 6 7 7 8 12 16 15 12
4 5 6 6 6 6 6 6 6 7 7 7 8 4 3 3 1 -1 4 9 9 8 7 7 6 8 8 6 7 7 7 7 6 6 9 10 10 6 5 5 6 8 10 7 11 10 12
5 6 6 6 6 6 6 6 6 6 7 8 5 5 3 2 0 1 6 9 7 6 6 6 9 7 9 8 8 8 8 6 6 5 5 7 11 7 6 5 5 7 6 11 10 17 17
6 6 6 6 6 6 6 6 6 6 7 7 5 6 3 1 0 3 8 8 7 5 6 7 8 8 8 8 8 8 8 6 6 6 5 6 9 9 7 8 8 8 9 9 9 10 15
5 5 5 6 6 6 5 5 6 6 7 7 5 8 4 1 5 4 7 7 8 6 6 6 6 7 8 8 9 8 8 7 5 5 8 6 9 12 10 6 6 6 8 9 14 15 12
5 5 6 6 6 6 6 6 6 6 7 9 9 8 3 3 7 7 7 8 8 8 8 8 8 7 7 8 10 8 8 6 5 6 8 7 9 13 11 8 7 8 9 10 10 11 15
5 6 6 6 6 6 6 6 6 6 7 8 8 10 7 5 5 7 9 9 10 8 8 8 9 8 8 9 8 10 9 8 7 6 5 6 9 11 14 11 8 10 9 9 12 17 16
6 6 6 6 6 6 6 6 6 7 7 6 7 7 7 8 7 8 8 9 10 10 8 8 9 9 9 11 10 10 8 8 7 6 7 7 10 9 8 8 8 9 9 9 10 10 15
6 6 6 6 6 6 6 6 6 7 7 5 8 8 7 8 8 8 10 9 10 10 10 10 10 9 8 10 9 10 9 8 9 7 7 6 10 9 10 8 8 10 9 8 8 8 9
6 6 6 6 6 6 6 7 6 6 6 6 5 5 7 7 8 8 8 9 10 9 8 8 8 9 9 8 7 7 7 7 7 7 7 7 9 11 14 9 9 12 9 8 8 7 8
6 6 6 6 6 6 6 6 6 6 6 5 5 6 7 9 8 9 10 9 10 9 10 8 8 8 7 5 6 6 7 7 6 6 5 8 9 10 15 11 19 9 6 6 8 9 9
6 6 6 6 6 6 5 5 5 5 5 4 4 6 7 9 8 9 10 10 9 8 8 8 7 6 5 7 10 10 8 7 7 6 6 6 8 13 16 15 11 9 8 9 11 12 9
5 5 5 5 5 5 5 5 4 5 5 5 4 4 6 9 9 9 9 9 10 9 9 8 6 5 7 8 10 12 12 10 10 9 6 6 8 12 14 18 18 14 9 6 6 14 7
5 5 5 5 5 5 5 5 5 4 5 5 5 4 7 9 7 8 9 9 8 9 10 8 8 8 6 9 10 10 10 8 11 11 11 9 9 12 13 15 12 9 7 5 14 13 6
4 4 4 4 6 6 5 5 5 4 5 6 6 4 7 8 7 7 7 8 8 8 10 8 9 8 8 9 9 9 10 9 9 8 9 10 12 12 11 14 16 7 7 10 7 5 5
4 5 5 5 5 5 5 5 5 5 5 5 7 5 6 10 8 6 6 6 6 6 8 7 7 7 6 8 7 7 9 8 9 12 6 10 8 11 11 11 5 4 5 5 5 5 5